Ages Brookside, KY

6:02 AM EDT on September 29, 2016 (GMT -0400)
Harlan

Weather History for KI35 - June, 2013

Change the Weather History Date:

Saturday, June 1, 2013

  Actual Average (KLOZ) Record (KLOZ)
Temperature  
Mean Temperature 75 °F 69 °F  
Max Temperature 86 °F 80 °F 89 °F (2011)
Min Temperature 64 °F 58 °F 34 °F (1966)
Degree Days  
Heating Degree Days 0 1  
Month to date heating degree days 1  
Since 1 June heating degree days 1  
Since 1 July heating degree days 4197  
Cooling Degree Days 10 5  
Month to date cooling degree days 5  
Year to date cooling degree days 119  
Since 1 June cooling degree days 5  
Growing Degree Days 25 (Base 50)    
Moisture  
Dew Point 60 °F    
Average Humidity 62    
Maximum Humidity 88    
Minimum Humidity 42    
Precipitation  
Precipitation 0.00 in 0.17 in 1.22 in (1967)
Month to date precipitation 0.17  
Sea Level Pressure  
Sea Level Pressure 30.04 in    
Wind  
Wind Speed 2 mph (SSW)    
Max Wind Speed 9 mph    
Max Gust Speed 20 mph    
Visibility 10 miles    
Events      
T = Trace of Precipitation, MM = Missing Value Source: NWS Daily Summary

Daily Weather History Graph

Daily Weather History Graph

Search for Another Location

Airport or City:

Trip Planner

Search our weather history database for the weather conditions in past years. The results will help you decide how hot, cold, wet, or windy it might be!

Date:

Astronomy

Jun. 01, 2013 Rise Set
Actual Time 6:15 AM EDT 8:47 PM EDT
Civil Twilight 5:45 AM EDT 9:17 PM EDT
Nautical Twilight 5:08 AM EDT 9:54 PM EDT
Astronomical Twilight 4:26 AM EDT 10:36 PM EDT
Moon 2:01 AM EDT (6/1) 2:24 PM EDT (6/1)
Length of Visible Light 15h 32m
Length of Day
14h 31m
Last Quarter, 41% of the Moon is Illuminated
Jun 1
Last Quarter
Jun 8
New
Jun 16
First Quarter
Jun 23
Full
Jun 30
Last Quarter

Hourly Weather History & Observations

Time (EDT) Temp. Heat Index Dew Point Humidity Pressure Visibility Wind Dir Wind Speed Gust Speed Precip Events Conditions
12:15 AM 68.0 °F - 60.8 °F 78% 30.09 in 10.0 mi Calm Calm - N/A   Clear
12:35 AM 64.4 °F - 60.8 °F 88% 30.10 in 10.0 mi Calm Calm - N/A   Clear
12:55 AM 66.2 °F - 60.8 °F 83% 30.10 in 10.0 mi Calm Calm - N/A   Clear
1:15 AM 64.4 °F - 60.8 °F 88% 30.10 in 10.0 mi Calm Calm - N/A   Clear
1:35 AM 66.2 °F - 60.8 °F 83% 30.11 in 10.0 mi Calm Calm - N/A   Clear
1:55 AM 64.4 °F - 60.8 °F 88% 30.11 in 10.0 mi Calm Calm - N/A   Clear
2:15 AM 64.4 °F - 60.8 °F 88% 30.11 in 10.0 mi Calm Calm - N/A   Clear
2:35 AM 64.4 °F - 60.8 °F 88% 30.11 in 10.0 mi Calm Calm - N/A   Scattered Clouds
2:55 AM 64.4 °F - 60.8 °F 88% 30.11 in 10.0 mi Calm Calm - N/A   Overcast
3:15 AM 64.4 °F - 60.8 °F 88% 30.10 in 10.0 mi Calm Calm - N/A   Overcast
3:35 AM 64.4 °F - 60.8 °F 88% 30.09 in 10.0 mi Calm Calm - N/A   Overcast
3:55 AM 64.4 °F - 60.8 °F 88% 30.09 in 10.0 mi Calm Calm - N/A   Overcast
4:15 AM 66.2 °F - 60.8 °F 83% 30.08 in 10.0 mi Calm Calm - N/A   Overcast
4:35 AM 64.4 °F - 60.8 °F 88% 30.08 in 10.0 mi ENE 3.5 mph - N/A   Overcast
4:55 AM 68.0 °F - 59.0 °F 73% 30.08 in 10.0 mi NE 4.6 mph - N/A   Overcast
5:15 AM 68.0 °F - 59.0 °F 73% 30.08 in 10.0 mi Calm Calm - N/A   Overcast
5:35 AM 69.8 °F - 59.0 °F 68% 30.07 in 10.0 mi Calm Calm - N/A   Overcast
5:55 AM 68.0 °F - 59.0 °F 73% 30.07 in 10.0 mi East 4.6 mph - N/A   Overcast
6:15 AM 68.0 °F - 59.0 °F 73% 30.07 in 10.0 mi East 4.6 mph - N/A   Overcast
6:35 AM 68.0 °F - 59.0 °F 73% 30.06 in 10.0 mi ENE 3.5 mph - N/A   Overcast
6:55 AM 68.0 °F - 59.0 °F 73% 30.06 in 10.0 mi East 3.5 mph - N/A   Overcast
7:15 AM 69.8 °F - 59.0 °F 68% 30.06 in 10.0 mi East 3.5 mph - N/A   Overcast
7:35 AM 71.6 °F - 60.8 °F 69% 30.07 in 10.0 mi East 3.5 mph - N/A   Overcast
7:55 AM 73.4 °F - 60.8 °F 65% 30.08 in 10.0 mi Calm Calm - N/A   Overcast
8:15 AM 71.6 °F - 60.8 °F 69% 30.08 in 10.0 mi East 3.5 mph - N/A   Overcast
8:35 AM 75.2 °F - 60.8 °F 61% 30.07 in 10.0 mi NNE 3.5 mph - N/A   Overcast
8:55 AM 75.2 °F - 60.8 °F 61% 30.08 in 10.0 mi SSW 3.5 mph - N/A   Overcast
9:15 AM 77.0 °F - 60.8 °F 57% 30.07 in 10.0 mi SE 3.5 mph - N/A   Overcast
9:35 AM 77.0 °F - 60.8 °F 57% 30.07 in 10.0 mi SSE 3.5 mph - N/A   Mostly Cloudy
9:55 AM 77.0 °F - 60.8 °F 57% 30.07 in 10.0 mi South 6.9 mph - N/A   Mostly Cloudy
10:15 AM 78.8 °F - 60.8 °F 54% 30.07 in 10.0 mi SSW 9.2 mph 19.6 mph N/A   Overcast
10:35 AM 78.8 °F - 60.8 °F 54% 30.07 in 10.0 mi Calm Calm - N/A   Overcast
10:55 AM 78.8 °F - 60.8 °F 54% 30.07 in 10.0 mi SSW 6.9 mph - N/A   Mostly Cloudy
11:15 AM 78.8 °F - 60.8 °F 54% 30.07 in 10.0 mi WSW 4.6 mph - N/A   Mostly Cloudy
11:35 AM 80.6 °F 81.5 °F 60.8 °F 51% 30.07 in 10.0 mi WSW 6.9 mph - N/A   Mostly Cloudy
11:55 AM 80.6 °F 81.5 °F 60.8 °F 51% 30.07 in 10.0 mi SW 6.9 mph - N/A   Scattered Clouds
12:15 PM 82.4 °F 83.4 °F 62.6 °F 51% 30.07 in 10.0 mi SW 8.1 mph 18.4 mph N/A   Mostly Cloudy
12:35 PM 82.4 °F 83.4 °F 62.6 °F 51% 30.07 in 10.0 mi Calm Calm - N/A   Overcast
12:55 PM 80.6 °F 81.5 °F 60.8 °F 51% 30.06 in 10.0 mi SW 5.8 mph - N/A   Overcast
1:15 PM 80.6 °F 81.5 °F 60.8 °F 51% 30.06 in 10.0 mi WSW 8.1 mph - N/A   Overcast
1:35 PM 82.4 °F 82.9 °F 60.8 °F 48% 30.05 in 10.0 mi SW 8.1 mph - N/A   Mostly Cloudy
1:55 PM 82.4 °F 82.9 °F 60.8 °F 48% 30.05 in 10.0 mi SSW 3.5 mph - N/A   Mostly Cloudy
2:15 PM 84.2 °F 85.0 °F 62.6 °F 48% 30.03 in 10.0 mi SW 3.5 mph - N/A   Mostly Cloudy
2:35 PM 82.4 °F 82.9 °F 60.8 °F 48% 30.03 in 10.0 mi Calm Calm - N/A   Mostly Cloudy
2:55 PM 82.4 °F 83.4 °F 62.6 °F 51% 30.02 in 10.0 mi Calm Calm - N/A   Mostly Cloudy
3:15 PM 82.4 °F 82.9 °F 60.8 °F 48% 30.02 in 10.0 mi Calm Calm - N/A   Mostly Cloudy
3:35 PM 86.0 °F 86.1 °F 60.8 °F 43% 30.01 in 10.0 mi West 9.2 mph - N/A   Scattered Clouds
3:55 PM 82.4 °F 82.9 °F 60.8 °F 48% 30.01 in 10.0 mi SW 4.6 mph - N/A   Scattered Clouds
4:15 PM 80.6 °F 81.5 °F 60.8 °F 51% 30.01 in 10.0 mi Calm Calm - N/A   Mostly Cloudy
4:35 PM 82.4 °F 82.9 °F 60.8 °F 48% 30.01 in 10.0 mi WSW 3.5 mph - N/A   Scattered Clouds
4:55 PM 82.4 °F 82.9 °F 60.8 °F 48% 30.00 in 10.0 mi West 4.6 mph - N/A   Scattered Clouds
5:15 PM 82.4 °F 82.9 °F 60.8 °F 48% 29.99 in 10.0 mi SW 3.5 mph - N/A   Mostly Cloudy
5:35 PM 82.4 °F 82.9 °F 60.8 °F 48% 29.99 in 10.0 mi SSW 4.6 mph - N/A   Mostly Cloudy
5:55 PM 82.4 °F 82.5 °F 59.0 °F 45% 29.97 in 10.0 mi Calm Calm - N/A   Scattered Clouds
6:15 PM 82.4 °F 82.5 °F 59.0 °F 45% 29.97 in 10.0 mi SW 5.8 mph - N/A   Clear
6:35 PM 82.4 °F 82.0 °F 57.2 °F 42% 29.96 in 10.0 mi Calm Calm - N/A   Scattered Clouds
6:55 PM 82.4 °F 82.0 °F 57.2 °F 42% 29.97 in 10.0 mi Calm Calm - N/A   Scattered Clouds
7:15 PM 82.4 °F 82.0 °F 57.2 °F 42% 29.96 in 10.0 mi SW 3.5 mph - N/A   Scattered Clouds
7:35 PM 80.6 °F 80.8 °F 57.2 °F 45% 29.97 in 10.0 mi SSW 3.5 mph - N/A   Mostly Cloudy
7:55 PM 80.6 °F 81.1 °F 59.0 °F 48% 29.98 in 10.0 mi WSW 3.5 mph - N/A   Overcast
8:15 PM 78.8 °F - 59.0 °F 51% 29.98 in 10.0 mi Calm Calm - N/A   Scattered Clouds
8:35 PM 78.8 °F - 59.0 °F 51% 29.99 in 10.0 mi Calm Calm - N/A   Scattered Clouds
8:55 PM 78.8 °F - 59.0 °F 51% 29.99 in 10.0 mi Calm Calm - N/A   Mostly Cloudy
9:15 PM 78.8 °F - 60.8 °F 54% 30.00 in 10.0 mi SW 8.1 mph - N/A   Overcast
9:35 PM 77.0 °F - 60.8 °F 57% 30.01 in 10.0 mi Calm Calm - N/A   Overcast
9:55 PM 77.0 °F - 60.8 °F 57% 29.99 in 10.0 mi SSW 6.9 mph - N/A   Mostly Cloudy
10:15 PM 75.2 °F - 60.8 °F 61% 29.98 in 10.0 mi South 4.6 mph - N/A   Scattered Clouds
10:35 PM 73.4 °F - 60.8 °F 65% 29.98 in 10.0 mi South 4.6 mph - N/A   Scattered Clouds
10:55 PM 73.4 °F - 62.6 °F 69% 29.97 in 10.0 mi ESE 4.6 mph - N/A   Clear
11:15 PM 71.6 °F - 62.6 °F 73% 29.97 in 10.0 mi SSE 4.6 mph - N/A   Clear
11:35 PM 73.4 °F - 62.6 °F 69% 30.00 in 10.0 mi WSW 4.6 mph - N/A   Mostly Cloudy
11:55 PM 73.4 °F - 62.6 °F 69% 29.99 in 10.0 mi SW 8.1 mph - N/A   Overcast